Weather History for KMYR - January, 2014

Change the Weather History Date:

Monday, January 6, 2014

  Actual Average Record
Temperature  
Mean Temperature 47 °F -  
Max Temperature 64 °F 55 °F 77 °F (1955)
Min Temperature 30 °F 35 °F 18 °F (1999)
Degree Days  
Heating Degree Days 18    
Moisture  
Dew Point 44 °F    
Average Humidity 75    
Maximum Humidity 100    
Minimum Humidity 36    
Precipitation  
Precipitation 0.00 in - - ()
Sea Level Pressure  
Sea Level Pressure 29.89 in    
Wind  
Wind Speed 12 mph (SW)    
Max Wind Speed 26 mph    
Max Gust Speed 32 mph    
Visibility 9 miles    
Events Rain    
Averages and records for this station are not official NWS values.
T = Trace of Precipitation, MM = Missing Value Source: NWS Daily Summary

Daily Weather History Graph

Daily Weather History Graph

Search for Another Location

Airport or City:

Trip Planner

Search our weather history database for the weather conditions in past years. The results will help you decide how hot, cold, wet, or windy it might be!

Date:

Astronomy

Jan. 06, 2014 Rise Set
Actual Time 7:21 AM EST 5:22 PM EST
Civil Twilight 6:53 AM EST 5:49 PM EST
Nautical Twilight 6:22 AM EST 6:20 PM EST
Astronomical Twilight 5:52 AM EST 6:50 PM EST
Moon 10:53 AM EST (1/6) 11:34 PM EST (1/6)
Length of Visible Light 10h 56m
Length of Day
10h 01m
Waxing Crescent, 34% of the Moon is Illuminated
Jan 6
Waxing Crescent
Jan 7
First Quarter
Jan 15
Full
Jan 24
Last Quarter
Jan 30
New

Hourly Weather History & Observations

Time (EST) Temp. Windchill Dew Point Humidity Pressure Visibility Wind Dir Wind Speed Gust Speed Precip Events Conditions
12:15 AM 55.4 °F - 55.4 °F 100% 29.87 in 0.2 mi SSE 9.2 mph - N/A   Overcast
12:35 AM 57.2 °F - 55.4 °F 94% 29.87 in 1.0 mi South 4.6 mph - N/A   Overcast
12:55 AM 57.2 °F - 57.2 °F 100% 29.85 in 5.0 mi South 6.9 mph - N/A   Scattered Clouds
1:15 AM 59.0 °F - 57.2 °F 94% 29.85 in 10.0 mi South 10.4 mph - N/A   Clear
1:35 AM 57.2 °F - 55.4 °F 94% 29.84 in 10.0 mi South 9.2 mph - N/A   Clear
1:55 AM 57.2 °F - 55.4 °F 94% 29.84 in 10.0 mi South 12.7 mph - N/A   Clear
2:15 AM 59.0 °F - 57.2 °F 94% 29.83 in 10.0 mi South 13.8 mph 17.3 mph N/A   Scattered Clouds
2:35 AM 57.2 °F - 55.4 °F 94% 29.83 in 10.0 mi SSW 9.2 mph - N/A   Mostly Cloudy
2:55 AM 59.0 °F - 55.4 °F 88% 29.82 in 10.0 mi South 11.5 mph - N/A   Overcast
3:15 AM 59.0 °F - 57.2 °F 94% 29.80 in 10.0 mi SSW 13.8 mph 20.7 mph N/A   Overcast
3:35 AM 59.0 °F - 57.2 °F 94% 29.81 in 3.0 mi South 11.5 mph - N/A   Overcast
3:55 AM 60.8 °F - 57.2 °F 88% 29.80 in 1.2 mi SSW 11.5 mph - N/A   Overcast
4:15 AM 60.8 °F - 59.0 °F 94% 29.80 in 1.2 mi SSW 15.0 mph - N/A   Overcast
4:35 AM 62.6 °F - 60.8 °F 94% 29.78 in 10.0 mi South 11.5 mph 20.7 mph N/A   Mostly Cloudy
4:55 AM 62.6 °F - 60.8 °F 94% 29.78 in 10.0 mi SSW 13.8 mph 19.6 mph N/A   Mostly Cloudy
5:15 AM 64.4 °F - 62.6 °F 94% 29.78 in 10.0 mi SW 12.7 mph 23.0 mph N/A   Overcast
5:35 AM 64.4 °F - 60.8 °F 88% 29.77 in 10.0 mi South 8.1 mph - N/A   Mostly Cloudy
5:55 AM 62.6 °F - 59.0 °F 88% 29.77 in 10.0 mi South 6.9 mph - N/A   Mostly Cloudy
6:45 AM 62.6 °F - 60.8 °F 94% 29.74 in 10.0 mi South 13.8 mph - N/A   Mostly Cloudy
7:45 AM 62.6 °F - 59.0 °F 88% 29.76 in 10.0 mi SW 13.8 mph - N/A   Mostly Cloudy
8:46 AM 64.4 °F - 57.2 °F 77% 29.77 in 10.0 mi WSW 17.3 mph - N/A   Mostly Cloudy
9:46 AM 64.4 °F - 57.2 °F 77% 29.77 in 10.0 mi WSW 17.3 mph - N/A   Overcast
10:45 AM 51.8 °F - 44.6 °F 76% 29.83 in 10.0 mi WNW 11.5 mph 28.8 mph N/A   Overcast
11:50 AM 48.2 °F - 42.8 °F 82% 29.82 in 8.0 mi West 11.5 mph - N/A Rain Light Rain
12:53 PM 48.2 °F - 42.8 °F 82% 29.81 in 10.0 mi West 21.9 mph 26.5 mph N/A   Overcast
1:45 PM 51.8 °F - 39.2 °F 62% 29.84 in 10.0 mi WNW 17.3 mph 26.5 mph N/A   Mostly Cloudy
2:45 PM 50.0 °F - 32.0 °F 50% 29.86 in 10.0 mi WNW 26.5 mph 32.2 mph N/A   Partly Cloudy
4:45 PM 46.4 °F 39.5 °F 28.4 °F 50% 29.93 in 10.0 mi NW 17.3 mph - N/A   Scattered Clouds
5:45 PM 44.6 °F 38.8 °F 23.0 °F 43% 29.96 in 10.0 mi WNW 11.5 mph 20.7 mph N/A   Partly Cloudy
6:45 PM 42.8 °F 34.8 °F 17.6 °F 36% 29.99 in 10.0 mi WNW 17.3 mph - N/A   Clear
7:45 PM 39.2 °F 30.2 °F 14.0 °F 36% 30.05 in 10.0 mi WNW 17.3 mph - N/A   Clear
8:45 PM 37.4 °F 27.8 °F 12.2 °F 36% 30.10 in 10.0 mi WNW 17.3 mph 23.0 mph N/A   Clear
9:45 PM 35.6 °F 26.6 °F 14.0 °F 41% 30.14 in 10.0 mi WNW 13.8 mph - N/A   Clear
10:55 PM 32.0 °F 21.2 °F 12.2 °F 44% 30.19 in 10.0 mi WNW 16.1 mph 20.7 mph N/A   Clear
11:15 PM 30.2 °F 20.2 °F 12.2 °F 47% 30.20 in 10.0 mi West 12.7 mph 17.3 mph N/A   Clear
11:35 PM 30.2 °F 18.1 °F 12.2 °F 47% 30.22 in 10.0 mi WNW 18.4 mph 26.5 mph N/A   Clear
11:55 PM 30.2 °F 18.9 °F 8.6 °F 40% 30.22 in 10.0 mi WNW 16.1 mph 25.3 mph N/A   Clear